Tracking 19562 objects as of 22-Mar-2019
HD Live streaming from Space Station
objects crossing your sky now

INTELSAT 904

Track INTELSAT 904 now!
INTELSAT 904 is classified as:


NORAD ID: 27380
Int'l Code: 2002-007A
Perigee: 35,812.8 km
Apogee: 35,832.9 km
Inclination: 0.4 °
Period: 1,437.6 minutes
Semi major axis: 42193 km
RCS: 11.3214 m2 (large)
Launch date: February 23, 2002
Source: International Telecommunications Satellite Organization (ITSO)
Launch site: FRENCH GUIANA (FRGUI)

76 C-band, 22 Ku-band, broadcasting, business services, direct-to-home TV broadcasting, telecommunications, VSAT networks; Indian Ocean region.
aabbcc
Your satellite tracking list
Your tracking list is empty




NASA's NSSDC Master Catalog

Two Line Element Set (TLE):
1 27380U 02007A   19080.87729378 +.00000129 +00000-0 +00000-0 0  9990
2 27380 000.4081 098.5138 0002383 231.3037 202.4579 01.00168133025250
Source of the keplerian elements: AFSPC